Weather History for KUIL - November, 2012

Change the Weather History Date:

Saturday, November 3, 2012

  Actual Average Record
Temperature  
Mean Temperature 55 °F 46 °F  
Max Temperature 56 °F 53 °F 69 °F (1976)
Min Temperature 53 °F 40 °F 25 °F (2003)
Degree Days  
Heating Degree Days 10 19  
Month to date heating degree days 55  
Since 1 July heating degree days 1145  
Cooling Degree Days 0 0  
Month to date cooling degree days 0  
Year to date cooling degree days 19  
Growing Degree Days 4 (Base 50)    
Moisture  
Dew Point 52 °F    
Average Humidity 93    
Maximum Humidity 100    
Minimum Humidity 88    
Precipitation  
Precipitation 0.40 in 0.48 in 4.20 in (2014)
Month to date precipitation 1.41  
Year to date precipitation 72.44  
Sea Level Pressure  
Sea Level Pressure 30.01 in    
Wind  
Wind Speed 6 mph (South)    
Max Wind Speed 17 mph    
Max Gust Speed 28 mph    
Visibility 2 miles    
Events Fog , Rain    
T = Trace of Precipitation, MM = Missing Value Source: NWS Daily Summary

Daily Weather History Graph

Daily Weather History Graph

Search for Another Location

Airport or City:

Trip Planner

Search our weather history database for the weather conditions in past years. The results will help you decide how hot, cold, wet, or windy it might be!

Date:

Astronomy

Nov. 03, 2012 Rise Set
Actual Time 8:07 AM PDT 5:55 PM PDT
Civil Twilight 7:34 AM PDT 6:28 PM PDT
Nautical Twilight 6:57 AM PDT 7:05 PM PDT
Astronomical Twilight 6:21 AM PDT 7:41 PM PDT
Moon 9:35 PM PDT 12:22 PM PDT
Length of Visible Light 10h 54m
Length of Day
9h 48m
Waning Gibbous, 79% of the Moon is Illuminated
Nov 3
Waning Gibbous
Nov 6
Last Quarter
Nov 13
New
Nov 20
First Quarter
Nov 28
Full

Hourly Weather History & Observations

Time (PDT) Temp. Dew Point Humidity Pressure Visibility Wind Dir Wind Speed Gust Speed Precip Events Conditions
12:53 AM 53.1 °F 50.0 °F 89% 29.90 in 4.0 mi SSE 5.8 mph 18.4 mph N/A   Overcast
1:24 AM 53.6 °F 50.0 °F 88% 29.90 in 2.5 mi SSE 10.4 mph 18.4 mph N/A   Overcast
1:33 AM 53.6 °F 50.0 °F 88% 29.90 in 2.0 mi Variable 6.9 mph - N/A   Overcast
1:51 AM 53.6 °F 50.0 °F 88% 29.90 in 1.8 mi SSE 11.5 mph 19.6 mph N/A   Overcast
1:53 AM 53.1 °F 50.0 °F 89% 29.90 in 1.8 mi SSE 6.9 mph 19.6 mph N/A   Overcast
2:00 AM 53.6 °F 50.0 °F 88% 29.90 in 2.0 mi SSE 8.1 mph - N/A   Overcast
2:17 AM 53.6 °F 50.0 °F 88% 29.91 in 3.0 mi SSE 9.2 mph 19.6 mph N/A   Overcast
2:53 AM 53.1 °F 50.0 °F 89% 29.91 in 2.0 mi South 10.4 mph 21.9 mph 0.00 in Rain Light Rain
2:59 AM 53.6 °F 50.0 °F 88% 29.91 in 1.2 mi South 8.1 mph 19.6 mph 0.01 in Rain Light Rain
3:40 AM 53.6 °F 51.8 °F 94% 29.92 in 1.8 mi South 8.1 mph - 0.02 in   Overcast
3:53 AM 53.1 °F 51.1 °F 93% 29.93 in 2.5 mi South 6.9 mph - 0.02 in   Overcast
4:15 AM 53.6 °F 51.8 °F 94% 29.92 in 1.2 mi Variable 5.8 mph - 0.01 in Rain Light Rain
4:26 AM 53.6 °F 51.8 °F 94% 29.92 in 2.0 mi SSE 6.9 mph - 0.01 in Rain Light Rain
4:39 AM 53.6 °F 51.8 °F 94% 29.92 in 1.8 mi SSE 4.6 mph - 0.01 in Rain Light Rain
4:53 AM 53.1 °F 51.1 °F 93% 29.93 in 1.8 mi Variable 6.9 mph - 0.01 in   Overcast
5:12 AM 53.6 °F 51.8 °F 94% 29.93 in 3.0 mi Variable 6.9 mph - N/A   Overcast
5:53 AM 53.1 °F 51.1 °F 93% 29.94 in 6.0 mi Variable 5.8 mph - N/A   Overcast
6:36 AM 53.6 °F 51.8 °F 94% 29.94 in 2.0 mi Variable 5.8 mph - N/A   Overcast
6:53 AM 54.0 °F 52.0 °F 93% 29.95 in 2.0 mi Variable 5.8 mph - N/A   Overcast
7:15 AM 53.6 °F 51.8 °F 94% 29.95 in 3.0 mi South 5.8 mph - 0.00 in   Overcast
7:23 AM 53.6 °F 51.8 °F 94% 29.95 in 2.5 mi South 5.8 mph - 0.00 in   Overcast
7:53 AM 54.0 °F 51.1 °F 90% 29.95 in 1.8 mi SSE 6.9 mph - 0.00 in   Overcast
8:14 AM 53.6 °F 51.8 °F 94% 29.94 in 1.2 mi Variable 6.9 mph - N/A   Overcast
8:32 AM 53.6 °F 51.8 °F 94% 29.95 in 2.0 mi South 6.9 mph - 0.02 in Rain Light Rain
8:43 AM 53.6 °F 51.8 °F 94% 29.96 in 1.2 mi South 8.1 mph - 0.02 in Rain Light Rain
8:53 AM 54.0 °F 52.0 °F 93% 29.97 in 1.0 mi South 9.2 mph - 0.03 in Rain Light Rain
9:30 AM 53.6 °F 51.8 °F 94% 29.97 in 0.8 mi Variable 4.6 mph - 0.00 in   Overcast
9:43 AM 53.6 °F 51.8 °F 94% 29.96 in 1.2 mi South 5.8 mph - 0.00 in   Overcast
9:53 AM 54.0 °F 52.0 °F 93% 29.97 in 1.2 mi South 9.2 mph - 0.01 in   Overcast
10:27 AM 53.6 °F 51.8 °F 94% 29.97 in 0.8 mi South 5.8 mph - 0.01 in Rain Light Rain
10:53 AM 54.0 °F 52.0 °F 93% 29.98 in 0.8 mi South 9.2 mph - 0.02 in Rain Light Rain
11:05 AM 53.6 °F 51.8 °F 94% 29.97 in 0.2 mi South 9.2 mph 20.7 mph 0.01 in Fog , Rain Light Rain
11:12 AM 53.6 °F 51.8 °F 94% 29.97 in 0.5 mi South 9.2 mph - 0.02 in Fog , Rain Light Rain
11:53 AM 54.0 °F 53.1 °F 97% 29.99 in 0.5 mi Variable 6.9 mph 17.3 mph 0.05 in Fog , Rain Light Rain
12:36 PM 55.4 °F 53.6 °F 94% 29.99 in 1.5 mi South 9.2 mph - 0.03 in Rain Light Rain
12:41 PM 55.4 °F 53.6 °F 94% 29.99 in 3.0 mi South 10.4 mph 16.1 mph 0.03 in Rain Light Rain
12:53 PM 55.0 °F 53.1 °F 93% 29.99 in 4.0 mi South 6.9 mph 19.6 mph 0.03 in   Overcast
12:57 PM 55.4 °F 53.6 °F 94% 29.98 in 1.8 mi South 11.5 mph 17.3 mph 0.00 in Rain Light Rain
1:11 PM 55.4 °F 53.6 °F 94% 29.98 in 2.5 mi South 8.1 mph 17.3 mph 0.00 in   Overcast
1:22 PM 55.4 °F 53.6 °F 94% 29.98 in 1.2 mi South 10.4 mph 18.4 mph 0.01 in Rain Light Rain
1:32 PM 55.4 °F 53.6 °F 94% 29.98 in 0.5 mi South 10.4 mph 18.4 mph 0.03 in Fog , Rain Light Rain
1:53 PM 55.0 °F 53.1 °F 93% 29.99 in 0.5 mi South 15.0 mph 24.2 mph 0.04 in Fog , Rain Light Rain
2:09 PM 55.4 °F 53.6 °F 94% 29.99 in 1.5 mi South 13.8 mph 26.5 mph 0.01 in Rain Light Rain
2:18 PM 55.4 °F 55.4 °F 100% 30.00 in 2.5 mi South 15.0 mph 24.2 mph 0.01 in   Overcast
2:36 PM 55.4 °F 55.4 °F 100% 30.01 in 2.0 mi South 11.5 mph 21.9 mph 0.01 in   Overcast
2:53 PM 55.9 °F 55.0 °F 97% 30.01 in 2.5 mi South 10.4 mph 18.4 mph 0.01 in Rain Light Rain
3:01 PM 55.4 °F 55.4 °F 100% 30.01 in 1.2 mi South 12.7 mph 26.5 mph 0.00 in Rain Light Rain
3:09 PM 55.4 °F 55.4 °F 100% 30.01 in 1.0 mi South 13.8 mph 26.5 mph 0.00 in Rain Light Rain
3:18 PM 55.4 °F 53.6 °F 94% 30.02 in 0.5 mi South 12.7 mph 25.3 mph 0.00 in Fog , Rain Light Rain
3:28 PM 55.4 °F 53.6 °F 94% 30.03 in 0.2 mi South 11.5 mph 25.3 mph 0.03 in Fog , Rain Light Rain
3:37 PM 55.4 °F 53.6 °F 94% 30.04 in 0.5 mi SW 10.4 mph 18.4 mph 0.03 in Fog , Rain Light Rain
3:46 PM 55.4 °F 53.6 °F 94% 30.04 in 1.0 mi SW 10.4 mph 18.4 mph 0.04 in Rain Light Rain
3:53 PM 55.0 °F 53.1 °F 93% 30.05 in 1.5 mi SW 9.2 mph - 0.04 in Rain Light Rain
4:02 PM 55.4 °F 53.6 °F 94% 30.05 in 3.0 mi SW 5.8 mph - 0.00 in Rain Light Rain
4:17 PM 55.4 °F 51.8 °F 88% 30.07 in 4.0 mi SW 6.9 mph - 0.00 in Rain Light Rain
4:53 PM 54.0 °F 52.0 °F 93% 30.10 in 2.0 mi South 4.6 mph - 0.01 in Rain Light Rain
4:58 PM 53.6 °F 51.8 °F 94% 30.10 in 1.8 mi SSW 3.5 mph - 0.01 in Rain Light Rain
5:03 PM 53.6 °F 51.8 °F 94% 30.10 in 1.5 mi South 3.5 mph - 0.02 in Rain Light Rain
5:23 PM 53.6 °F 51.8 °F 94% 30.11 in 2.0 mi Calm Calm - 0.04 in Rain Light Rain
5:40 PM 53.6 °F 51.8 °F 94% 30.10 in 1.8 mi Calm Calm - 0.07 in Rain Rain
5:53 PM 54.0 °F 52.0 °F 93% 30.11 in 3.0 mi Calm Calm - 0.08 in Rain Light Rain
6:04 PM 53.6 °F 51.8 °F 94% 30.10 in 3.0 mi Variable 3.5 mph - 0.00 in Rain Light Rain
6:29 PM 53.6 °F 51.8 °F 94% 30.11 in 4.0 mi Calm Calm - 0.02 in Rain Light Rain
6:38 PM 53.6 °F 51.8 °F 94% 30.11 in 4.0 mi South 3.5 mph - 0.02 in Rain Light Rain
6:53 PM 53.1 °F 52.0 °F 96% 30.12 in 5.0 mi Calm Calm - 0.02 in Rain Light Rain
7:26 PM 53.6 °F 51.8 °F 94% 30.11 in 5.0 mi Calm Calm - 0.00 in   Overcast
7:35 PM 53.6 °F 51.8 °F 94% 30.11 in 5.0 mi Calm Calm - 0.00 in   Overcast
7:53 PM 53.1 °F 52.0 °F 96% 30.11 in 4.0 mi Calm Calm - 0.00 in   Overcast
8:30 PM 53.6 °F 51.8 °F 94% 30.11 in 4.0 mi Calm Calm - 0.01 in Rain Light Rain
8:39 PM 53.6 °F 51.8 °F 94% 30.11 in 4.0 mi Calm Calm - 0.01 in Rain Light Rain
8:53 PM 54.0 °F 52.0 °F 93% 30.12 in 4.0 mi SE 3.5 mph - 0.01 in Rain Light Rain
9:07 PM 53.6 °F 51.8 °F 94% 30.12 in 2.0 mi Calm Calm - 0.00 in Rain Light Rain
9:09 PM 53.6 °F 51.8 °F 94% 30.12 in 1.8 mi Calm Calm - 0.00 in Rain Light Rain
9:36 PM 53.6 °F 51.8 °F 94% 30.13 in 1.2 mi Calm Calm - 0.01 in Rain Light Rain
9:44 PM 53.6 °F 51.8 °F 94% 30.13 in 1.5 mi Calm Calm - 0.01 in Rain Light Rain
9:53 PM 53.1 °F 51.1 °F 93% 30.14 in 1.8 mi Calm Calm - 0.01 in Rain Light Rain
10:00 PM 53.6 °F 51.8 °F 94% 30.13 in 2.5 mi Calm Calm - 0.00 in Rain Light Rain
10:10 PM 53.6 °F 51.8 °F 94% 30.13 in 4.0 mi ESE 3.5 mph - 0.01 in Rain Light Rain
10:53 PM 53.1 °F 51.1 °F 93% 30.14 in 5.0 mi SE 3.5 mph - 0.01 in   Overcast
11:53 PM 53.1 °F 50.0 °F 89% 30.12 in 8.0 mi ESE 4.6 mph - N/A   Overcast